DW1653 Weather Reports


Display with metric or nautical units.
time (UTC)temp
F
wind
direction
speed
MPH
gust
MPH
rain 1hr
in
rain 24hr
in
rain mn
in
humidity
%
barometer
mb
20260509135325 67 219 5.0 15.0 0.00 0.00 0.00 64 1012.3
20260509134817 67 189 6.0 15.0 0.00 0.00 0.00 63 1012.3
20260509134328 68 207 4.0 14.0 0.00 0.00 0.00 62 1012.4
20260509133823 67 213 6.0 14.0 0.00 0.00 0.00 61 1012.4
20260509133334 67 167 4.0 13.0 0.00 0.00 0.00 61 1012.4
20260509132824 66 188 5.0 13.0 0.00 0.00 0.00 62 1012.5
20260509132320 66 209 5.0 11.0 0.00 0.00 0.00 62 1012.4
20260509131832 66 126 5.0 11.0 0.00 0.00 0.00 63 1012.4
20260509131323 65 232 4.0 11.0 0.00 0.00 0.00 64 1012.5
20260509130835 65 182 5.0 11.0 0.00 0.00 0.00 66 1012.4
20260509130329 64 197 4.0 12.0 0.00 0.00 0.00 66 1012.4
20260509125819 64 200 5.0 9.0 0.00 0.00 0.00 67 1012.5
20260509125334 64 184 5.0 13.0 0.00 0.00 0.00 67 1012.6
20260509124826 63 221 6.0 13.0 0.00 0.00 0.00 67 1012.6
20260509124317 63 284 2.0 10.0 0.00 0.00 0.00 68 1012.5
20260509123815 63 223 3.0 8.0 0.00 0.00 0.00 68 1012.5
20260509123327 63 190 4.0 9.0 0.00 0.00 0.00 69 1012.6
20260509122818 62 284 3.0 14.0 0.00 0.00 0.00 69 1012.6
20260509122329 62 189 6.0 14.0 0.00 0.00 0.00 69 1012.6
20260509121819 62 144 6.0 12.0 0.00 0.00 0.00 70 1012.7
20260509121331 61 213 4.0 10.0 0.00 0.00 0.00 70 1012.7
20260509120824 61 239 5.0 10.0 0.00 0.00 0.00 71 1012.7
20260509120355 61 302 5.0 9.0 0.00 0.00 0.00 71 1012.8
20260509115824 60 168 3.0 11.0 0.00 0.00 0.00 72 1012.8
20260509115323 60 209 3.0 11.0 0.00 0.00 0.00 72 1012.8
20260509114834 60 252 4.0 10.0 0.00 0.00 0.00 72 1012.8
20260509114326 60 182 4.0 10.0 0.00 0.00 0.00 72 1012.9
20260509113817 59 207 5.0 9.0 0.00 0.00 0.00 72 1012.9
20260509113329 59 268 4.0 13.0 0.00 0.00 0.00 72 1012.8
20260509112819 59 239 5.0 13.0 0.00 0.00 0.00 73 1012.8
20260509112332 59 174 3.0 7.0 0.00 0.00 0.00 73 1012.8
20260509111824 59 248 5.0 9.0 0.00 0.00 0.00 73 1012.8
20260509111320 59 197 4.0 9.0 0.00 0.00 0.00 74 1012.8
20260509110831 58 172 1.0 9.0 0.00 0.00 0.00 74 1012.8
20260509110322 58 203 4.0 9.0 0.00 0.00 0.00 74 1012.9
20260509105814 58 229 3.0 6.0 0.00 0.00 0.00 74 1012.8
20260509105346 58 218 2.0 7.0 0.00 0.00 0.00 74 1012.9
20260509104836 58 208 3.0 10.0 0.00 0.00 0.00 74 1012.8
20260509104328 57 221 2.0 10.0 0.00 0.00 0.00 74 1012.8
20260509103818 57 204 3.0 8.0 0.00 0.00 0.00 74 1012.8
20260509103350 57 256 4.0 8.0 0.00 0.00 0.00 74 1012.8
20260509102821 57 186 4.0 8.0 0.00 0.00 0.00 74 1012.8
20260509102317 57 211 2.0 6.0 0.00 0.00 0.00 74 1012.7
20260509101847 56 234 1.0 6.0 0.00 0.00 0.00 74 1012.7
20260509101318 56 144 4.0 8.0 0.00 0.00 0.00 74 1012.7
20260509100813 56 209 3.0 8.0 0.00 0.00 0.00 74 1012.6
20260509100327 56 184 4.0 7.0 0.00 0.00 0.00 74 1012.6
20260509095818 56 182 2.0 5.0 0.00 0.00 0.00 73 1012.6
20260509095331 56 186 2.0 6.0 0.00 0.00 0.00 73 1012.7
20260509094822 56 154 2.0 7.0 0.00 0.00 0.00 73 1012.6
20260509094320 56 196 2.0 7.0 0.00 0.00 0.00 72 1012.5
20260509093832 56 215 3.0 5.0 0.00 0.00 0.00 71 1012.6
20260509093323 56 237 2.0 9.0 0.00 0.00 0.00 71 1012.5
20260509092815 56 225 3.0 9.0 0.00 0.00 0.00 71 1012.6
20260509092327 56 221 4.0 8.0 0.00 0.00 0.00 71 1012.6
20260509091818 56 200 3.0 8.0 0.00 0.00 0.00 71 1012.5
20260509091329 56 153 3.0 8.0 0.00 0.00 0.00 70 1012.5
20260509090820 56 184 4.0 8.0 0.00 0.00 0.00 70 1012.6
20260509090319 56 226 3.0 8.0 0.00 0.00 0.00 70 1012.7
20260509085851 56 184 1.0 5.0 0.00 0.00 0.00 70 1012.8
20260509085320 56 173 2.0 9.0 0.00 0.00 0.00 70 1012.8
20260509084831 56 209 3.0 9.0 0.00 0.00 0.00 70 1012.8
20260509084323 56 144 2.0 6.0 0.00 0.00 0.00 70 1012.9
20260509083814 56 206 3.0 6.0 0.00 0.00 0.00 70 1012.9
20260509083329 56 186 1.0 4.0 0.00 0.00 0.00 70 1012.9
20260509082821 56 207 2.0 3.0 0.00 0.00 0.00 69 1012.9
20260509082331 56 180 0.0 3.0 0.00 0.00 0.00 69 1012.9
20260509081827 56 243 1.0 6.0 0.00 0.00 0.00 69 1013.0
20260509081321 56 244 3.0 7.0 0.00 0.00 0.00 69 1013.1
20260509080853 56 260 2.0 4.0 0.00 0.00 0.00 69 1013.1
20260509080323 56 267 1.0 3.0 0.00 0.00 0.00 69 1013.0
20260509075815 56 232 1.0 3.0 0.00 0.00 0.00 69 1013.1
20260509075327 56 213 1.0 2.0 0.00 0.00 0.00 69 1013.2
20260509074817 56 240 1.0 4.0 0.00 0.00 0.00 69 1013.2
20260509074329 56 217 1.0 4.0 0.00 0.00 0.00 68 1013.2
20260509073821 56 199 2.0 4.0 0.00 0.00 0.00 68 1013.1
20260509073337 56 266 1.0 3.0 0.00 0.00 0.00 68 1013.1
20260509072812 56 257 2.0 3.0 0.00 0.00 0.00 68 1013.2
20260509072325 56 221 1.0 2.0 0.00 0.00 0.00 68 1013.2
20260509071817 56 229 1.0 3.0 0.00 0.00 0.00 68 1013.2
20260509071331 56 251 1.0 4.0 0.00 0.00 0.00 68 1013.2
20260509070823 56 190 1.0 5.0 0.00 0.00 0.00 68 1013.1
20260509070315 56 219 2.0 5.0 0.00 0.00 0.00 68 1013.0
20260509065826 56 236 1.0 4.0 0.00 0.00 0.00 68 1013.0
20260509065322 56 176 1.0 4.0 0.00 0.00 0.00 68 1013.0
20260509064814 56 240 1.0 4.0 0.00 0.00 0.00 67 1013.2
20260509064325 56 178 1.0 3.0 0.00 0.00 0.00 67 1013.2
20260509063817 56 210 1.0 2.0 0.00 0.00 0.00 67 1013.3
20260509063328 56 208 1.0 2.0 0.00 0.00 0.00 66 1013.3
20260509062820 56 257 1.0 4.0 0.00 0.00 0.00 66 1013.3
20260509062311 57 258 2.0 6.0 0.00 0.00 0.00 66 1013.3
20260509061825 57 250 2.0 6.0 0.00 0.00 0.00 66 1013.4
20260509061321 57 238 3.0 6.0 0.00 0.00 0.00 66 1013.5
20260509060832 57 250 2.0 6.0 0.00 0.00 0.00 66 1013.5
20260509060324 57 228 3.0 8.0 0.00 0.00 0.00 66 1013.5
20260509055815 57 246 3.0 8.0 0.00 0.00 0.00 66 1013.5
20260509055329 57 215 3.0 8.0 0.00 0.00 0.00 66 1013.5
20260509054820 57 260 3.0 7.0 0.00 0.00 0.00 66 1013.6
20260509054315 57 248 3.0 7.0 0.00 0.00 0.00 66 1013.5
20260509053827 57 215 3.0 7.0 0.00 0.00 0.00 66 1013.5
20260509053339 57 271 2.0 8.0 0.00 0.00 0.00 66 1013.6
20260509052815 57 223 3.0 8.0 0.00 0.00 0.00 66 1013.5
20260509052346 57 230 3.0 9.0 0.00 0.00 0.00 66 1013.6
20260509051816 57 263 3.0 9.0 0.00 0.00 0.00 66 1013.7
20260509051327 57 247 3.0 6.0 0.00 0.00 0.00 66 1013.7
20260509050818 57 207 3.0 6.0 0.00 0.00 0.00 66 1013.7
20260509050330 57 224 3.0 6.0 0.00 0.00 0.00 66 1013.7
20260509045841 57 244 2.0 6.0 0.00 0.00 0.00 66 1013.7
20260509045312 57 244 2.0 8.0 0.00 0.00 0.00 66 1013.7
20260509044826 57 234 4.0 7.0 0.00 0.00 0.00 67 1013.8
20260509044322 57 219 2.0 5.0 0.00 0.00 0.00 66 1013.7
20260509043834 57 239 2.0 7.0 0.00 0.00 0.00 66 1013.6
20260509043326 57 165 2.0 6.0 0.00 0.00 0.00 66 1013.6
20260509042822 57 186 2.0 4.0 0.00 0.00 0.00 66 1013.4
20260509042353 57 216 2.0 6.0 0.00 0.00 0.00 66 1013.5
20260509041824 57 246 2.0 6.0 0.00 0.00 0.00 66 1013.5
20260509041318 57 251 2.0 5.0 0.00 0.00 0.00 65 1013.4
20260509040829 57 250 2.0 7.0 0.00 0.00 0.00 65 1013.3
20260509040321 57 230 2.0 8.0 0.00 0.00 0.00 65 1013.3
20260509035851 58 199 2.0 5.0 0.00 0.00 0.00 65 1013.3
20260509035326 58 242 3.0 5.0 0.00 0.00 0.00 65 1013.4
20260509034817 58 236 2.0 7.0 0.00 0.00 0.00 64 1013.4
20260509034331 58 236 2.0 7.0 0.00 0.00 0.00 64 1013.4
20260509033823 58 136 3.0 7.0 0.00 0.00 0.00 64 1013.4
20260509033334 58 229 4.0 6.0 0.00 0.00 0.00 64 1013.3
20260509032845 58 228 2.0 4.0 0.00 0.00 0.00 63 1013.3
20260509031827 58 216 2.0 5.0 0.00 0.00 0.00 63 1013.3
20260509031319 58 229 2.0 5.0 0.00 0.00 0.00 63 1013.3
20260509030814 58 201 1.0 6.0 0.00 0.00 0.00 62 1013.3
20260509030326 58 235 2.0 6.0 0.00 0.00 0.00 62 1013.3
20260509025818 58 184 1.0 4.0 0.00 0.00 0.00 62 1013.3
20260509025329 58 178 1.0 3.0 0.00 0.00 0.00 61 1013.3
20260509024821 58 193 1.0 4.0 0.00 0.00 0.00 61 1013.2
20260509024332 58 237 1.0 4.0 0.00 0.00 0.00 61 1013.2
20260509023824 58 213 1.0 5.0 0.00 0.00 0.00 60 1013.2
20260509023315 59 241 1.0 5.0 0.00 0.00 0.00 60 1013.2
20260509022830 59 211 1.0 3.0 0.00 0.00 0.00 59 1013.2
20260509022325 59 258 1.0 2.0 0.00 0.00 0.00 59 1013.3
20260509021817 59 217 1.0 2.0 0.00 0.00 0.00 59 1013.2
20260509021332 59 217 1.0 2.0 0.00 0.00 0.00 59 1013.3
20260509020823 59 213 1.0 3.0 0.00 0.00 0.00 59 1013.4
20260509020315 59 244 1.0 3.0 0.00 0.00 0.00 58 1013.4
20260509015827 59 260 1.0 6.0 0.00 0.00 0.00 58 1013.3
20260509015318 59 214 2.0 4.0 0.00 0.00 0.00 58 1013.3
20260509014814 59 218 2.0 4.0 0.00 0.00 0.00 57 1013.2
20260509014329 59 191 2.0 5.0 0.00 0.00 0.00 57 1013.2
20260509013821 59 183 1.0 5.0 0.00 0.00 0.00 57 1013.1
20260509013331 59 216 1.0 3.0 0.00 0.00 0.00 56 1013.1
20260509012822 59 242 2.0 4.0 0.00 0.00 0.00 56 1013.0
20260509012314 59 190 1.0 5.0 0.00 0.00 0.00 56 1012.9
20260509011845 59 212 1.0 4.0 0.00 0.00 0.00 56 1012.8
20260509011316 59 182 1.0 3.0 0.00 0.00 0.00 55 1012.8
20260509010848 59 202 2.0 3.0 0.00 0.00 0.00 55 1012.7
20260509010338 59 222 2.0 6.0 0.00 0.00 0.00 55 1012.6
20260509005833 60 216 3.0 6.0 0.00 0.00 0.00 55 1012.6
20260509005345 60 194 2.0 7.0 0.00 0.00 0.00 55 1012.5
20260509004818 60 194 4.0 7.0 0.00 0.00 0.00 54 1012.4
20260509004353 60 207 2.0 6.0 0.00 0.00 0.00 55 1012.4
20260509003824 60 209 2.0 6.0 0.00 0.00 0.00 54 1012.2
20260509003316 60 213 2.0 5.0 0.00 0.00 0.00 54 1012.2
20260509002848 60 224 1.0 7.0 0.00 0.00 0.00 54 1012.1
20260509002319 60 254 3.0 8.0 0.00 0.00 0.00 54 1012.1
20260509001831 60 224 3.0 10.0 0.00 0.00 0.00 55 1012.1
20260509001321 60 163 4.0 10.0 0.00 0.00 0.00 55 1011.9
20260509000816 60 175 4.0 10.0 0.00 0.00 0.00 56 1012.0
20260509000348 59 200 5.0 10.0 0.00 0.00 0.00 58 1011.9
20260508235819 59 174 2.0 10.0 0.00 0.00 0.00 60 1011.8
20260508235352 59 165 3.0 7.0 0.00 0.00 0.00 61 1011.8
20260508234842 58 191 2.0 5.0 0.00 0.00 0.00 61 1011.7
20260508234333 58 155 1.0 3.0 0.00 0.00 0.00 62 1011.7
20260508233823 58 149 1.0 6.0 0.00 0.00 0.00 62 1011.6
20260508233315 58 165 1.0 6.0 0.00 0.00 0.00 62 1011.5
20260508232827 58 155 2.0 6.0 0.00 0.00 0.00 62 1011.5
20260508232321 59 173 2.0 6.0 0.00 0.00 0.00 62 1011.4
20260508231817 59 155 2.0 5.0 0.00 0.00 0.00 61 1011.4
20260508231348 59 132 2.0 5.0 0.00 0.00 0.00 61 1011.4
20260508230818 59 136 2.0 5.0 0.00 0.00 0.00 60 1011.3
20260508230330 59 107 2.0 5.0 0.00 0.00 0.00 60 1011.4
20260508225821 60 139 2.0 5.0 0.00 0.00 0.00 58 1011.3
20260508225333 60 122 2.0 5.0 0.00 0.00 0.00 56 1011.3
20260508224823 60 178 2.0 6.0 0.00 0.00 0.00 56 1011.3
20260508224314 60 129 2.0 7.0 0.00 0.00 0.00 57 1011.3
20260508223825 61 134 3.0 7.0 0.00 0.00 0.00 55 1011.3
20260508223320 62 96 2.0 4.0 0.00 0.00 0.00 52 1011.3
20260508222812 62 148 2.0 7.0 0.00 0.00 0.00 52 1011.3
20260508222346 61 126 2.0 8.0 0.00 0.00 0.00 52 1011.3
20260508221816 61 144 4.0 8.0 0.00 0.00 0.00 52 1011.3
20260508221328 62 132 4.0 6.0 0.00 0.00 0.00 51 1011.2
20260508220839 63 114 2.0 5.0 0.00 0.00 0.00 48 1011.4
20260508220330 66 72 2.0 6.0 0.00 0.00 0.00 43 1011.3
20260508215840 67 284 2.0 6.0 0.00 0.00 0.00 37 1011.2
20260508215330 67 331 3.0 7.0 0.00 0.00 0.00 36 1011.3
20260508214821 67 173 3.0 8.0 0.00 0.00 0.00 37 1011.2
20260508214337 67 340 3.0 9.0 0.00 0.00 0.00 37 1011.3
20260508213828 67 344 3.0 9.0 0.00 0.00 0.00 36 1011.4
20260508213319 68 350 5.0 8.0 0.00 0.00 0.00 36 1011.3
20260508212333 68 342 3.0 10.0 0.00 0.00 0.00 36 1011.2
20260508211844 67 315 6.0 11.0 0.00 0.00 0.00 37 1011.2
20260508211315 67 19 6.0 11.0 0.00 0.00 0.00 37 1011.2
20260508210826 66 360 5.0 14.0 0.00 0.00 0.00 37 1011.3
20260508210338 66 333 7.0 14.0 0.00 0.00 0.00 36 1011.3
20260508205828 66 327 4.0 16.0 0.00 0.00 0.00 36 1011.2
20260508205320 66 290 6.0 16.0 0.00 0.00 0.00 35 1011.4
20260508204815 67 333 3.0 11.0 0.00 0.00 0.00 36 1011.4
20260508204326 67 227 3.0 11.0 0.00 0.00 0.00 35 1011.3
20260508203835 67 311 3.0 11.0 0.00 0.00 0.00 35 1011.2
20260508203346 67 355 2.0 11.0 0.00 0.00 0.00 35 1011.2
20260508202816 67 295 3.0 10.0 0.00 0.00 0.00 34 1011.3
20260508202330 66 311 3.0 10.0 0.00 0.00 0.00 34 1011.3
20260508201820 66 281 3.0 14.0 0.00 0.00 0.00 34 1011.3
20260508201331 66 279 7.0 16.0 0.00 0.00 0.00 33 1011.2
20260508200821 67 199 6.0 16.0 0.00 0.00 0.00 32 1011.2
20260508200333 67 279 5.0 15.0 0.00 0.00 0.00 33 1011.2
20260508195823 67 297 4.0 9.0 0.00 0.00 0.00 32 1011.2
20260508195321 67 309 3.0 13.0 0.00 0.00 0.00 33 1011.2
20260508194852 67 275 8.0 13.0 0.00 0.00 0.00 31 1011.2
20260508194322 68 268 5.0 12.0 0.00 0.00 0.00 33 1011.3
20260508193837 67 260 2.0 12.0 0.00 0.00 0.00 34 1011.2
20260508193327 67 288 4.0 12.0 0.00 0.00 0.00 33 1011.3
20260508192819 67 249 6.0 12.0 0.00 0.00 0.00 33 1011.4
20260508192331 67 304 5.0 11.0 0.00 0.00 0.00 33 1011.4
20260508191822 67 277 3.0 11.0 0.00 0.00 0.00 33 1011.5
20260508191354 67 234 6.0 14.0 0.00 0.00 0.00 32 1011.6
20260508190844 68 265 7.0 15.0 0.00 0.00 0.00 32 1011.7
20260508190317 68 244 7.0 15.0 0.00 0.00 0.00 32 1011.7
20260508185829 67 303 5.0 14.0 0.00 0.00 0.00 32 1011.8
20260508185323 68 288 5.0 14.0 0.00 0.00 0.00 30 1012.0
20260508184815 69 298 7.0 17.0 0.00 0.00 0.00 30 1012.0
20260508184326 70 266 8.0 17.0 0.00 0.00 0.00 29 1012.1
20260508183818 70 294 8.0 16.0 0.00 0.00 0.00 30 1012.2
20260508183330 70 293 5.0 16.0 0.00 0.00 0.00 30 1012.0
20260508182821 70 291 7.0 16.0 0.00 0.00 0.00 30 1012.1
20260508182352 69 238 8.0 20.0 0.00 0.00 0.00 31 1012.2
20260508181827 69 267 9.0 20.0 0.00 0.00 0.00 30 1012.3
20260508181338 70 273 7.0 18.0 0.00 0.00 0.00 30 1012.2
20260508180828 69 275 11.0 20.0 0.00 0.00 0.00 30 1012.4
20260508180322 68 273 9.0 20.0 0.00 0.00 0.00 31 1012.3
20260508175835 69 284 3.0 12.0 0.00 0.00 0.00 31 1012.2
20260508175328 69 313 4.0 16.0 0.00 0.00 0.00 31 1012.3
20260508174820 69 269 8.0 16.0 0.00 0.00 0.00 31 1012.3
20260508174331 69 257 7.0 16.0 0.00 0.00 0.00 32 1012.2
20260508173842 69 267 7.0 19.0 0.00 0.00 0.00 31 1012.3
20260508173333 69 298 6.0 21.0 0.00 0.00 0.00 31 1012.3
20260508172826 70 261 6.0 21.0 0.00 0.00 0.00 31 1012.3
20260508172322 69 302 2.0 9.0 0.00 0.00 0.00 34 1012.3
20260508171833 68 298 5.0 11.0 0.00 0.00 0.00 33 1012.5
20260508171344 67 309 4.0 16.0 0.00 0.00 0.00 33 1012.3
20260508170815 67 304 7.0 16.0 0.00 0.00 0.00 33 1012.5
20260508170330 68 288 5.0 12.0 0.00 0.00 0.00 32 1012.6
20260508165821 67 263 3.0 17.0 0.00 0.00 0.00 34 1012.6
20260508165316 66 179 5.0 17.0 0.00 0.00 0.00 35 1012.7
20260508164826 66 280 7.0 15.0 0.00 0.00 0.00 34 1012.8
20260508164322 66 348 7.0 22.0 0.00 0.00 0.00 33 1012.8
20260508163814 66 260 11.0 22.0 0.00 0.00 0.00 33 1012.9
20260508163326 66 289 8.0 14.0 0.00 0.00 0.00 33 1013.0
20260508162817 66 270 8.0 16.0 0.00 0.00 0.00 34 1013.0
20260508162329 66 306 4.0 14.0 0.00 0.00 0.00 35 1013.1
20260508161821 66 231 7.0 13.0 0.00 0.00 0.00 33 1013.2
20260508161332 66 288 4.0 18.0 0.00 0.00 0.00 36 1013.2
20260508160823 66 282 5.0 18.0 0.00 0.00 0.00 34 1013.3
20260508160321 67 312 5.0 12.0 0.00 0.00 0.00 34 1013.3
20260508155853 66 236 5.0 12.0 0.00 0.00 0.00 35 1013.1
20260508155323 65 16 4.0 12.0 0.00 0.00 0.00 36 1013.2
20260508154818 65 302 6.0 13.0 0.00 0.00 0.00 35 1013.3
20260508154332 66 238 5.0 13.0 0.00 0.00 0.00 34 1013.4
20260508153317 65 274 6.0 17.0 0.00 0.00 0.00 35 1013.5
20260508152829 65 268 7.0 14.0 0.00 0.00 0.00 35 1013.5
20260508152320 65 234 7.0 13.0 0.00 0.00 0.00 36 1013.6
20260508151815 65 249 7.0 11.0 0.00 0.00 0.00 37 1013.6
20260508151327 65 240 5.0 10.0 0.00 0.00 0.00 38 1013.6
20260508150819 64 5 2.0 10.0 0.00 0.00 0.00 39 1013.6
20260508150350 64 262 4.0 10.0 0.00 0.00 0.00 38 1013.6
20260508145820 63 272 2.0 9.0 0.00 0.00 0.00 39 1013.7
20260508145330 64 242 5.0 9.0 0.00 0.00 0.00 37 1013.7
20260508144822 64 300 3.0 6.0 0.00 0.00 0.00 39 1013.7
20260508144313 63 341 2.0 7.0 0.00 0.00 0.00 38 1013.7
20260508143827 63 287 3.0 7.0 0.00 0.00 0.00 39 1013.7
20260508143318 63 344 3.0 7.0 0.00 0.00 0.00 41 1013.8
20260508142833 63 292 3.0 7.0 0.00 0.00 0.00 41 1013.8
20260508142324 62 269 5.0 7.0 0.00 0.00 0.00 40 1013.8
20260508141815 61 355 3.0 8.0 0.00 0.00 0.00 44 1013.7
20260508141347 61 294 3.0 9.0 0.00 0.00 0.00 43 1013.7
20260508140817 60 327 3.0 10.0 0.00 0.00 0.00 45 1013.8
20260508140352 60 298 6.0 10.0 0.00 0.00 0.00 46 1013.9
20260508135822 60 315 3.0 10.0 0.00 0.00 0.00 47 1013.9